Flag for Germany Weather past 2 weeks in Rostock, Mecklenburg-Western Pomerania, Germany

Now
48 °F

Partly sunny.


Feels Like: 48 °F
Forecast: 39 / 59 °F
Wind: 2 mph from East

Location: Rostock-Warnemuende


UV Index: 3 (Moderate)

Visibility: 31 mi


Pressure: 29.93 "Hg

Humidity: 78%

Dew point: 41 °F

Location of RostockLocation

Historic Weather in Rostock

°F

Rostock temperature yesterday

Maximum temperature yesterday: 58 °F (at 3:00 PM)
Minimum temperature yesterday: 43 °F (at 6:00 AM)
Average temperature yesterday: 50 °F

Past Weeks' High & Low Weather Summary

 TemperatureHumidityPressure
High62 °F (Apr 7, 1:00 PM)100% (Apr 6, 5:00 AM)30.46 "Hg (Apr 6, 5:00 AM)
Low38 °F (Apr 16, 7:00 AM)33% (Apr 17, 4:00 PM)29.59 "Hg (Apr 14, 8:00 AM)
Average48 °F80%29.99 "Hg
* Reported Apr 3 7:00 PM — Apr 18 7:00 PM, Rostock, Weather by CustomWeather, © 2014

Note: Actual official high and low records may vary slightly from our data, if they occured in-between our weather recording intervals... More about our weather records

Advertising

Historic Weather Conditions — Data for Previous 24 hours

 ConditionsComfort  
Time TempWeatherWind HumidityBarometerVisibility
7:00 PM
Apr 18
47 °FSprinkles. Partly sunny.5 mph85%29.91 "Hg11 mi
6:00 PM47 °FPartly sunny.8 mph83%29.89 "Hg28 mi
5:00 PM48 °FScattered clouds.7 mph76%29.86 "Hg28 mi
4:00 PM48 °FScattered clouds.7 mph82%29.85 "Hg28 mi
3:00 PM47 °FPartly sunny.7 mph85%29.83 "Hg28 mi
2:00 PM47 °FPartly sunny.6 mph82%29.81 "Hg25 mi
1:00 PM47 °FPartly sunny.5 mph85%29.79 "Hg25 mi
12:00 PM46 °FOvercast.9 mph90%29.77 "Hg25 mi
11:00 AM45 °FPartly sunny.9 mph90%29.75 "Hg22 mi
10:00 AM44 °FOvercast.9 mph86%29.72 "Hg25 mi
9:00 AM43 °FOvercast.9 mph88%29.72 "Hg31 mi
8:00 AM44 °FOvercast.8 mph83%29.70 "Hg31 mi
7:00 AM44 °FOvercast.10 mph82%29.69 "Hg28 mi
6:00 AM44 °FOvercast.12 mph84%29.69 "Hg25 mi
5:00 AM44 °FPassing clouds.3 mph86%29.69 "Hg25 mi
4:00 AM45 °FPassing clouds.6 mph85%29.70 "Hg25 mi
3:00 AM45 °FOvercast.5 mph90%29.71 "Hg28 mi
2:00 AM45 °FRain. Overcast.5 mph90%29.72 "Hg4 mi
Weather by CustomWeather, © 2014

See weather overview